User: anonymous   Login
Location: Ayer Observatory
(42.2600°N, 71.0700°W)
Time: 22:36:55
(UTC-04:00)
Language:

LO-87 - Orbit

View from above orbital plane
View from above orbital plane
View from above satellite
View from above satellite

Ground track
Ground track

The orbit data is extracted from the following two-line orbital elements,

1 41557U 16033B   19203.52492930  .00000749  00000-0  30769-4 0  9993
2 41557  97.4181 290.8292 0014066 171.5586 188.5892 15.27259841175251
Epoch (UTC): 22 July 2019 12:35:53
Eccentricity: 0.0014066
inclination: 97.4181°
perigee height: 474 km
apogee height: 493 km
right ascension of ascending node: 290.8292°
argument of perigee: 171.5586°
revolutions per day: 15.27259841
mean anomaly at epoch: 188.5892°
orbit number at epoch: 17525

The dashed part of the orbit path shows where the satellite is in the earth's shadow,  

DLR